Location: Unspecified
(41.1637°N, 24.2901°E)
Time: 05:50:31
(UTC+01:00)

ISS - Pass Details

Date: 05 December 2019
Orbit: 411 x 421 km, 51.6° (Epoch: 15 December)

Event Time Altitude Azimuth Distance (km) Brightness Sun altitude
Rises 17:38:59 0° 310° (NW) 2,361 0.6 -19.2°
Reaches altitude 10° 17:41:18 10° 323° (NW) 1,498 -0.7 -19.6°
Enters shadow 17:43:04 22° 350° (N) 981 -2.0 -19.9°
